Theta_e
294 293 293 293 293 293 294 294 295 296 298 300 302 305 307 310 311 313 316 318 318 319 320 320 321 323 324 327 328 329 329 330 331 331 332 333 335 336 336 335 335 336 335 335 335 335 334 335 334 333 332 331 331 331 330 330 330 330 330 330 330 331 332 333 333 333 333 333 333
293 293 292 292 292 292 293 294 294 295 297 299 301 303 305 307 309 311 313 316 318 319 319 319 320 320 321 323 326 327 328 328 330 331 331 332 334 334 335 335 335 336 335 335 335 335 335 335 333 333 331 331 331 331 330 330 330 330 329 329 330 330 331 331 332 333 333 333 333
293 293 293 292 292 293 293 293 294 294 295 296 298 300 303 305 308 310 311 313 317 319 319 319 319 319 320 321 323 325 327 327 329 330 330 331 331 332 334 337 337 336 335 335 335 335 335 335 333 331 329 330 331 330 330 330 329 329 329 329 329 329 329 329 331 332 332 332 332
292 293 292 292 292 292 292 292 293 293 294 295 297 299 301 304 307 309 310 312 315 317 319 320 320 319 320 320 321 323 324 324 326 327 328 329 330 333 335 338 337 336 336 335 334 334 335 334 333 331 330 330 330 330 330 329 329 329 328 329 329 329 329 329 331 331 331 332 333
292 292 292 292 292 292 292 292 292 293 294 295 296 298 300 302 305 307 308 309 312 315 318 321 321 320 320 320 321 322 323 323 321 322 326 327 330 332 335 335 334 334 333 333 332 333 334 334 333 331 330 330 330 330 330 329 329 329 328 328 329 329 329 329 330 331 331 331 332
291 291 291 291 292 292 292 292 292 293 293 294 295 296 298 300 303 304 305 306 308 310 313 317 319 319 320 321 321 321 322 323 322 322 323 326 328 329 330 331 331 330 330 329 330 331 331 332 331 330 330 330 330 330 330 329 329 328 328 328 328 328 329 329 330 330 331 331 331
290 290 290 290 291 292 292 292 293 293 293 294 294 295 297 299 301 302 303 304 305 307 309 313 316 319 320 321 320 321 321 321 322 323 323 326 327 327 328 329 329 328 328 327 327 328 328 330 331 330 328 327 328 330 330 330 330 329 328 328 328 328 328 329 330 329 330 330 331
290 289 289 290 291 292 292 293 293 293 293 293 294 295 297 298 300 301 302 303 304 306 308 312 317 319 320 320 320 321 322 323 323 324 325 327 327 327 327 328 328 327 326 325 325 325 326 327 329 330 329 329 329 329 329 330 330 328 327 327 327 328 328 328 329 329 329 330 330
289 289 289 290 291 292 293 293 293 293 293 293 294 295 296 298 299 300 301 303 305 307 309 312 315 318 320 320 320 321 322 323 324 325 325 326 326 327 327 327 326 326 325 324 324 324 325 326 328 329 329 329 329 329 329 330 329 328 327 327 327 328 328 328 329 329 329 329 329
288 289 289 290 291 292 292 293 294 294 294 294 294 295 296 297 299 300 302 303 305 307 310 312 314 317 319 320 319 320 321 322 323 324 324 324 325 325 326 325 325 324 324 324 324 325 325 326 328 328 329 328 328 328 329 329 329 328 327 326 327 327 328 329 329 328 328 328 329
288 289 289 290 291 291 292 292 293 294 295 294 294 295 296 297 299 301 302 304 306 307 309 312 314 317 319 319 319 319 319 320 321 322 323 323 323 324 325 325 324 324 324 324 324 325 326 327 328 329 329 328 328 328 328 330 330 329 328 326 327 327 328 328 328 328 328 327 328
289 289 289 290 291 292 292 292 293 294 294 294 295 296 297 299 300 301 303 304 305 307 309 313 315 317 318 319 319 319 319 320 321 322 323 324 325 325 325 325 324 324 324 324 326 327 328 328 329 329 328 328 328 328 329 331 330 330 328 328 327 327 327 328 328 327 327 327 327
289 289 290 291 291 292 292 292 293 294 294 294 295 296 297 300 301 302 303 304 305 307 310 313 315 317 319 319 319 320 320 321 322 323 323 325 326 326 326 326 325 325 326 327 328 329 329 329 329 328 328 328 327 328 328 330 330 330 328 328 327 327 327 329 328 328 327 327 326
289 290 290 291 291 291 292 292 293 294 294 294 295 297 298 300 301 302 303 303 305 307 310 313 315 317 318 320 320 320 321 323 323 323 325 326 328 327 327 328 328 329 329 330 330 331 330 329 329 328 328 328 328 328 328 329 329 329 328 327 327 328 328 329 328 328 327 326 326
289 290 290 291 291 291 292 293 293 294 294 294 295 297 298 300 301 302 302 303 304 306 308 310 313 315 318 321 321 322 323 324 325 325 326 327 329 329 329 329 330 330 331 331 331 331 330 330 329 329 329 328 328 328 328 329 328 328 328 327 328 328 329 329 328 327 327 326 326
289 290 290 290 291 292 292 293 293 294 294 295 296 297 298 299 300 301 302 303 304 305 307 309 311 314 317 319 320 321 322 323 324 325 326 328 329 330 330 330 330 331 331 331 331 331 330 330 330 329 329 328 328 328 329 329 328 328 328 327 328 329 329 328 328 328 327 327 326
289 290 290 291 291 292 293 293 294 294 295 295 296 297 298 299 300 300 300 301 303 304 306 308 310 313 315 317 319 320 320 321 322 323 324 327 328 329 330 330 331 332 332 332 331 331 330 330 330 330 329 329 328 328 329 329 328 328 328 328 329 329 329 327 328 328 328 327 326
289 289 290 291 291 292 293 294 294 295 296 296 297 297 298 299 299 299 300 301 302 304 305 307 309 311 314 318 320 320 319 320 320 321 323 325 327 328 328 330 330 332 334 333 333 332 331 330 330 329 329 329 329 329 329 329 329 329 329 329 330 330 329 327 328 328 328 328 326
289 290 290 291 292 293 294 295 295 296 297 297 298 298 298 299 299 299 300 301 302 303 304 306 309 311 313 317 320 320 319 320 321 322 323 325 326 327 328 329 331 333 334 334 335 334 333 332 331 330 329 329 329 329 329 330 330 330 330 330 330 330 329 329 329 329 329 328 328
289 290 291 291 292 294 295 296 297 297 298 298 299 299 299 299 299 299 300 300 301 303 304 306 308 310 313 316 319 321 322 321 322 322 323 324 326 328 329 331 333 334 335 335 335 335 335 333 332 331 330 329 329 329 329 329 329 330 331 331 330 330 329 329 329 329 330 330 330
289 290 291 292 293 294 295 297 298 299 299 299 300 299 299 299 300 300 300 300 302 303 305 306 308 310 312 315 318 322 325 324 323 322 323 324 327 329 332 334 335 336 336 336 336 336 336 334 333 331 330 329 329 329 329 329 329 330 331 331 330 330 329 330 330 330 330 330 331
289 290 291 292 293 295 296 298 299 300 300 301 301 300 300 300 300 300 301 301 302 304 305 306 308 310 313 315 317 320 323 326 325 324 323 325 327 330 334 335 336 337 337 336 336 336 336 335 334 332 331 329 329 329 328 328 328 328 329 330 329 329 330 330 330 330 330 329 330
289 290 291 292 294 295 296 298 299 300 301 302 302 301 301 300 301 301 301 302 302 304 305 307 308 311 313 316 318 319 321 324 325 325 325 326 329 332 335 336 336 337 337 336 336 336 336 335 334 333 331 330 330 329 329 328 327 327 328 328 328 329 329 331 332 331 331 330 330
289 290 291 292 294 295 296 297 298 299 301 302 303 302 301 301 301 301 302 302 303 304 306 307 309 311 313 316 318 318 320 322 324 325 325 327 329 332 334 336 337 336 337 337 334 332 332 333 333 333 332 331 330 330 329 329 328 328 327 327 328 328 329 331 332 332 331 330 330
289 290 291 292 293 294 295 296 297 298 300 302 303 303 302 301 301 302 302 303 304 305 306 307 309 312 314 316 318 318 319 321 323 325 326 328 329 330 332 334 336 337 337 334 319 314 315 321 327 331 332 331 331 331 330 330 329 329 328 327 327 328 329 331 332 331 330 329 330
289 290 291 292 293 294 295 296 297 298 300 302 304 304 303 302 302 302 303 303 304 306 307 309 310 311 313 316 318 318 319 320 322 325 328 329 329 329 330 333 336 338 336 326 310 305 306 310 314 319 326 332 331 331 330 330 330 330 329 328 327 328 328 330 330 329 329 329 330
289 290 291 292 293 294 295 295 296 298 299 302 303 304 304 303 303 303 303 304 305 307 308 310 311 312 312 317 318 319 320 320 323 326 329 331 330 329 330 332 336 337 332 315 305 303 304 305 307 311 318 332 331 330 330 330 330 329 329 328 328 328 328 328 328 327 327 328 329
289 289 290 292 292 293 294 295 296 297 299 302 304 305 305 304 303 303 303 305 306 307 309 311 313 315 316 318 320 321 322 322 324 327 331 334 333 332 331 332 335 333 324 308 303 302 303 303 304 305 310 320 330 332 330 330 330 329 329 328 328 328 328 328 327 327 327 327 328
288 289 290 291 292 293 294 295 296 297 299 302 304 306 306 305 304 303 304 305 306 307 309 311 314 317 319 319 321 323 325 326 326 328 330 333 334 334 333 333 335 326 313 300 301 302 302 302 302 302 304 309 324 330 330 329 329 329 329 328 328 328 328 327 327 326 326 326 327
288 288 289 290 291 292 293 294 295 296 299 301 305 307 307 306 305 304 305 305 306 308 310 313 316 319 320 321 323 324 326 327 328 328 328 331 333 333 333 332 334 326 312 297 301 302 302 302 301 300 301 303 317 326 330 329 329 329 328 329 329 328 328 327 327 327 326 326 326
287 288 289 290 290 291 292 294 295 296 298 300 304 306 307 306 306 305 306 307 308 309 311 314 317 320 322 322 323 325 327 328 329 328 328 330 330 331 333 334 335 326 312 298 301 302 302 301 300 299 299 301 314 325 330 330 329 329 329 329 328 327 327 327 327 327 327 327 326
287 288 288 289 290 291 292 293 295 296 297 300 304 306 308 308 307 307 308 309 310 311 313 315 318 320 322 323 324 325 327 329 329 329 328 329 331 332 333 334 333 321 307 299 301 302 301 301 299 299 299 299 309 321 330 330 329 329 329 329 329 328 328 328 328 328 328 327 327
286 287 288 289 289 290 292 293 294 295 297 299 304 307 309 308 309 309 310 312 314 317 318 320 320 322 323 324 324 325 327 329 329 328 327 328 330 332 331 331 329 313 300 299 301 301 301 300 299 299 299 299 309 319 325 324 323 322 321 320 316 315 315 319 323 326 328 328 328
286 287 288 288 289 290 291 292 293 294 296 299 303 307 309 310 310 311 312 312 314 317 321 324 324 325 325 325 326 326 327 328 329 329 329 329 330 329 328 328 321 307 297 299 301 301 300 300 300 300 300 300 309 315 318 315 312 312 311 310 308 307 306 306 307 310 316 324 326
286 287 287 288 289 290 290 291 292 294 295 298 300 303 307 310 309 308 308 307 309 313 319 325 327 327 327 327 327 328 328 328 329 330 329 329 328 326 324 322 312 302 296 298 300 301 300 299 300 300 301 302 309 312 311 309 308 307 306 304 304 304 304 304 302 301 302 307 314
286 286 287 287 288 289 290 290 291 293 294 296 298 299 301 302 303 303 303 302 307 313 321 326 327 327 327 328 327 327 327 328 329 329 327 326 325 324 321 316 309 301 295 296 300 300 299 299 299 300 301 306 310 310 308 306 305 304 303 302 301 301 300 300 299 298 298 298 301
285 286 286 287 287 288 289 289 290 291 292 294 296 297 298 299 299 300 300 300 306 312 317 321 321 321 321 321 318 317 318 319 322 322 321 319 320 319 317 312 308 301 296 295 298 299 299 299 299 300 302 307 308 307 305 304 303 301 300 299 299 299 299 298 298 297 296 295 295
285 285 286 286 287 287 288 289 289 290 291 292 294 295 297 298 298 298 298 298 301 304 306 308 308 308 306 305 304 303 303 305 307 308 310 309 310 312 311 308 304 301 297 294 295 297 299 299 299 300 302 307 307 306 304 302 301 299 298 297 297 298 298 297 297 296 294 293 292
285 285 286 286 286 286 287 288 288 289 290 290 292 293 295 296 296 296 297 297 298 299 300 301 301 301 301 300 299 297 296 296 297 298 299 300 300 301 301 302 301 300 298 295 295 296 298 299 299 299 301 304 306 305 303 301 299 298 297 296 296 296 296 296 295 295 294 292 291
285 285 286 286 286 286 286 287 287 288 289 290 290 292 293 294 294 295 296 296 297 297 297 297 297 297 297 296 295 294 293 292 293 293 293 294 294 294 295 297 298 299 297 295 295 296 297 298 298 298 300 304 305 304 303 301 299 298 296 296 295 294 294 294 294 293 293 293 291
285 285 285 285 286 286 286 286 286 287 288 289 289 290 291 292 293 294 294 295 296 296 295 294 294 294 294 292 292 291 290 289 290 290 291 291 292 292 293 295 296 297 297 295 295 295 296 296 297 298 299 302 303 303 302 301 299 297 295 295 294 293 293 292 292 292 292 292 291
Wind_Speed
14 13 12 12 11 11 11 11 11 11 12 12 13 13 13 12 11 11 11 12 11 9 8 8 9 11 14 17 17 17 18 21 23 23 22 21 22 25 28 28 25 23 21 19 19 18 18 18 15 12 10 10 12 12 12 11 13 14 14 13 12 13 14 15 14 15 15 15 12
16 15 14 13 12 11 11 11 11 11 11 11 12 13 13 12 12 11 12 13 12 10 9 8 9 13 18 23 20 19 18 20 23 23 22 21 23 26 27 26 25 23 21 19 18 17 16 17 15 13 10 10 11 12 12 12 13 14 15 16 13 12 12 13 14 14 15 14 12
16 15 15 14 13 13 12 11 11 12 13 13 13 13 13 12 11 11 11 13 14 12 10 8 10 14 19 23 22 19 17 18 21 22 21 20 23 25 26 25 24 21 18 15 16 15 15 16 14 12 11 11 11 11 12 12 13 14 15 17 13 11 10 11 12 13 13 11 12
16 16 15 15 17 16 15 13 14 15 15 13 14 14 14 12 11 11 11 13 15 14 12 10 10 13 16 18 20 20 18 18 20 21 21 21 23 25 25 23 19 16 13 12 13 15 16 16 12 11 11 13 13 12 11 11 13 13 13 14 11 10 10 10 11 11 11 10 12
17 16 15 15 18 18 17 15 16 16 15 13 13 13 13 12 11 11 11 11 12 13 13 12 11 12 13 15 18 20 21 20 20 20 21 22 24 24 23 20 17 13 11 11 14 15 16 16 10 9 10 12 12 11 12 13 13 13 12 10 10 10 10 10 10 10 10 10 11
17 17 17 17 19 18 17 16 17 17 15 13 14 14 14 12 11 11 11 11 13 16 18 17 13 12 13 15 17 19 20 21 20 21 22 24 23 22 21 19 17 15 13 14 16 16 15 14 9 8 9 10 10 12 13 15 14 13 12 11 10 10 10 11 10 10 11 11 12
18 19 19 19 20 19 18 18 17 16 15 14 16 17 17 15 14 14 14 13 13 15 16 15 13 13 13 16 18 19 19 20 21 22 24 24 23 21 20 19 18 17 17 18 18 17 15 12 8 7 8 8 9 11 14 15 14 13 13 12 10 10 11 12 10 10 12 14 15
20 20 20 21 20 20 20 20 18 16 15 13 15 17 18 18 18 17 16 15 14 13 13 14 14 14 15 17 19 20 20 20 19 19 19 19 19 19 18 18 17 18 18 18 18 18 17 13 9 7 8 8 8 10 14 16 15 15 14 14 11 11 11 11 11 11 12 16 17
19 19 20 20 20 21 21 20 20 18 17 16 17 18 19 18 18 17 16 14 13 13 13 13 15 16 17 19 21 21 20 17 16 14 13 13 14 14 14 14 15 15 15 16 18 20 20 16 12 9 8 8 9 10 13 17 17 16 15 14 12 12 12 12 13 13 14 15 17
20 20 20 20 20 21 21 21 20 20 19 18 18 18 18 17 17 16 14 12 12 13 13 13 14 15 16 18 20 21 20 17 15 13 12 11 11 12 12 11 12 13 13 14 17 20 21 17 14 11 11 10 11 13 14 17 17 17 15 12 13 14 15 14 15 15 15 15 16
22 21 20 19 20 21 21 21 20 19 18 17 17 17 17 16 16 15 13 12 13 14 14 14 15 15 15 15 16 18 19 17 15 13 12 12 11 11 12 11 12 13 15 17 18 19 19 16 14 14 13 13 13 13 14 16 17 16 15 12 14 16 17 16 16 15 15 15 16
22 21 20 20 21 21 21 21 19 17 17 17 16 16 15 15 15 14 13 13 13 14 14 14 15 14 13 11 13 15 17 17 16 15 14 14 13 13 13 14 15 17 19 21 20 17 15 14 15 15 16 15 13 12 13 16 17 16 15 13 15 16 17 17 17 15 14 15 16
22 21 20 20 21 21 21 20 18 17 16 17 16 15 14 14 14 13 12 12 13 13 13 13 14 13 11 10 11 14 16 18 18 18 17 16 15 16 17 18 20 21 22 22 18 15 14 14 15 17 17 16 14 13 14 16 17 16 15 14 15 16 17 17 17 16 15 16 16
22 21 20 20 20 20 20 19 17 16 16 17 16 15 14 14 13 11 10 10 11 12 12 13 12 11 10 9 12 16 18 19 19 20 20 18 17 18 19 19 21 21 20 18 17 16 15 15 16 17 18 18 16 16 16 17 17 16 15 14 15 16 17 17 17 17 17 17 17
21 21 20 20 20 19 18 18 16 15 15 16 16 15 14 14 12 10 9 9 10 11 11 11 11 10 10 10 14 18 20 18 18 18 19 19 18 18 18 18 20 19 18 16 16 16 16 16 17 17 18 19 18 17 17 17 17 16 15 14 15 16 17 17 17 17 17 17 17
21 21 20 20 19 18 17 17 15 14 14 15 15 15 15 15 14 12 10 9 9 9 9 11 11 11 10 9 13 17 17 15 14 14 15 16 16 17 17 16 17 18 17 17 16 16 17 16 16 17 18 19 18 18 18 18 17 17 16 15 15 15 16 16 16 16 17 17 18
21 21 20 19 19 19 18 17 15 14 14 15 16 16 15 15 14 13 12 11 9 9 10 11 11 12 11 9 10 12 12 11 11 11 11 11 13 14 15 15 16 17 18 18 18 18 18 17 16 17 17 18 17 17 18 18 17 17 17 16 15 15 16 15 15 16 16 17 18
21 21 20 20 20 19 19 19 18 17 17 17 17 16 15 15 15 15 15 14 12 12 11 12 12 13 13 11 9 9 9 9 10 11 11 11 12 14 15 15 16 17 18 18 19 19 19 18 17 17 16 17 17 17 17 18 17 17 17 17 16 15 15 15 15 15 15 17 17
21 20 20 20 20 20 20 20 19 19 18 17 16 16 15 15 16 16 16 16 15 14 14 13 14 14 14 13 10 8 8 9 12 13 13 13 14 16 18 18 18 18 18 18 18 19 19 18 18 17 17 17 17 17 17 17 17 17 18 17 16 15 15 15 15 15 15 16 16
20 20 20 20 20 20 20 20 20 19 18 17 16 16 16 16 16 17 17 17 16 16 15 15 15 15 15 14 12 9 7 9 14 15 14 14 16 18 19 19 19 19 18 18 18 18 18 18 18 17 17 17 17 17 17 17 17 17 18 17 16 15 15 15 15 15 15 15 16
21 20 20 20 21 20 20 20 20 19 19 18 17 17 17 16 16 17 18 18 17 17 17 16 15 15 15 15 14 12 8 6 12 14 14 14 16 17 18 18 18 18 17 17 17 18 18 18 18 17 17 16 17 17 17 16 16 17 17 16 15 15 15 15 16 16 16 15 15
21 21 21 21 21 21 20 20 20 19 19 18 17 17 16 16 16 16 17 17 17 17 17 16 16 15 14 13 13 12 10 6 8 11 12 13 15 16 16 16 17 17 17 17 17 17 18 18 18 18 17 16 17 17 16 16 16 16 17 16 16 15 15 16 16 16 16 15 14
21 21 20 20 20 20 20 20 20 20 19 19 17 17 16 16 16 16 16 16 16 17 17 16 14 14 13 11 10 11 11 11 8 10 12 14 15 16 15 14 16 17 17 16 16 17 17 17 17 17 17 16 17 17 16 16 15 15 16 17 16 16 16 16 17 17 16 14 13
21 21 20 18 19 20 20 20 20 20 20 19 18 16 15 15 15 15 16 16 16 16 16 14 13 12 11 10 9 10 12 14 12 12 14 16 15 15 14 13 14 15 15 13 14 15 15 14 15 16 16 16 16 16 16 16 15 15 15 16 16 16 16 17 17 16 15 14 13
21 21 20 19 20 20 20 19 19 19 19 19 18 16 15 15 15 15 15 15 16 16 15 15 14 12 11 9 10 11 13 16 15 15 15 16 15 14 13 12 12 12 12 11 12 13 13 12 12 13 14 14 15 15 15 15 15 15 15 15 16 16 16 17 16 16 15 14 13
21 21 21 20 20 20 20 20 19 19 19 19 18 16 15 15 14 14 15 15 15 15 15 15 14 12 11 10 11 12 14 15 15 16 16 15 14 13 12 11 11 10 9 9 11 13 14 13 12 12 12 13 13 13 13 14 15 16 15 15 15 15 15 15 15 14 14 12 13
21 20 20 20 20 20 20 19 19 19 19 19 18 16 15 14 13 14 15 15 15 14 14 14 13 12 11 11 12 14 15 15 15 16 16 16 15 14 13 11 10 9 8 9 12 14 15 14 12 11 11 12 12 12 12 12 14 15 15 14 14 14 14 14 14 13 12 12 13
20 20 20 21 21 20 20 19 19 19 19 19 17 16 14 14 14 14 15 15 14 14 13 12 12 12 11 11 13 15 16 16 16 16 16 16 15 14 13 12 10 9 8 10 13 14 14 13 12 10 9 10 11 11 11 11 12 12 12 12 13 14 14 13 12 12 12 12 12
21 21 21 21 21 20 20 19 19 19 19 19 17 15 14 13 14 14 15 15 14 13 12 11 10 10 11 12 14 16 17 17 15 15 14 14 14 14 14 13 11 9 9 11 14 14 13 12 11 10 8 7 7 8 8 9 9 10 10 10 11 12 13 12 11 11 11 12 13
21 21 21 21 21 20 20 19 19 19 19 18 17 15 13 13 13 14 14 15 15 14 12 11 11 11 13 14 15 15 15 15 14 13 13 13 13 13 13 13 12 10 11 14 15 15 14 13 12 11 10 8 7 7 8 8 8 9 9 9 10 11 12 12 12 12 12 12 12
21 21 21 21 21 20 20 20 20 19 19 18 17 14 12 12 13 13 14 14 14 13 13 13 14 15 15 15 15 15 15 14 13 13 13 13 13 14 14 14 12 10 12 16 16 15 14 14 13 12 11 9 8 8 9 9 9 9 9 9 11 12 12 12 12 13 13 13 12
21 21 21 21 21 20 20 20 19 19 19 19 18 14 12 11 12 12 13 13 14 14 15 16 16 16 16 16 16 16 15 15 14 13 12 12 13 14 14 13 11 10 13 17 16 15 14 13 12 11 9 7 6 8 9 9 8 8 8 8 8 8 8 8 10 13 14 14 13
21 21 21 21 21 20 20 19 19 19 19 19 17 14 11 11 11 12 12 12 13 14 15 16 17 17 17 17 16 16 15 13 14 13 13 12 13 13 13 10 8 9 12 17 17 15 14 13 12 10 8 6 4 5 5 4 3 3 3 4 4 4 3 2 3 6 11 14 13
21 21 20 20 20 19 19 19 18 18 18 18 17 15 11 8 8 9 9 9 10 12 13 14 15 15 16 16 15 15 13 11 12 13 13 12 12 12 11 7 5 6 9 16 17 16 14 13 12 11 9 7 5 4 5 6 6 7 7 8 8 8 8 9 8 6 3 5 7
20 20 20 19 19 18 18 18 18 17 17 17 17 17 14 9 7 7 9 10 10 11 12 13 13 13 14 14 12 11 11 10 11 11 11 11 11 11 10 6 5 4 6 13 17 16 15 14 13 13 11 9 7 7 8 9 9 9 10 10 9 9 9 10 10 10 9 8 4
19 19 19 18 18 18 18 18 17 17 17 17 17 17 17 15 13 12 12 12 11 10 10 9 9 9 9 9 7 6 5 7 8 8 8 7 9 10 9 7 5 3 4 9 15 17 16 16 16 15 13 10 8 8 8 9 9 9 10 10 10 10 11 11 11 10 10 10 9
17 17 18 17 17 18 18 17 17 17 17 17 17 16 16 15 14 13 13 12 11 10 7 3 2 2 4 7 7 6 5 3 3 4 4 3 5 7 7 7 6 3 0 5 13 17 18 18 17 15 13 10 9 9 9 8 8 8 10 10 11 11 11 10 10 11 11 11 10
17 17 17 17 17 17 17 17 17 17 17 17 16 16 15 14 13 13 13 12 12 12 12 12 12 12 13 14 14 14 15 14 13 11 10 8 7 6 7 8 7 6 3 2 8 14 19 19 17 15 12 11 10 10 9 8 8 8 9 9 10 10 10 9 9 10 11 13 13
17 17 16 16 16 17 17 17 17 17 17 16 16 15 15 14 13 12 12 12 12 13 13 13 13 13 13 14 15 17 18 19 18 17 15 14 13 12 11 11 10 8 7 6 8 13 17 19 18 15 13 11 11 10 9 8 9 9 9 9 9 9 10 9 8 9 10 13 16
16 16 16 16 16 16 17 17 17 16 15 15 15 15 14 14 12 12 12 11 12 12 13 13 14 13 13 14 17 18 19 19 19 18 16 16 15 15 14 13 12 11 11 11 11 14 16 19 18 16 13 11 10 9 8 8 9 10 9 8 8 8 9 9 8 8 9 12 14
15 16 16 16 16 16 16 17 16 15 15 15 15 14 13 12 12 12 12 11 12 12 12 13 15 15 16 16 17 19 20 19 18 17 17 17 16 16 15 15 15 14 14 13 13 14 15 17 17 16 13 11 10 9 8 8 10 10 10 9 8 8 8 8 8 9 9 11 11
Wind_Direction
289 287 285 283 281 280 279 278 278 278 279 280 282 284 285 285 284 283 284 284 280 273 263 254 250 252 253 252 243 232 225 222 222 220 215 208 206 207 209 209 204 197 191 188 187 188 188 189 186 183 179 178 179 179 180 183 185 188 190 191 192 192 193 196 191 188 185 183 179
291 289 287 284 282 279 278 277 277 277 278 280 283 285 285 284 282 282 282 283 281 275 266 256 247 245 248 252 252 244 234 225 223 221 217 212 211 211 210 210 205 198 191 186 184 184 186 188 185 181 175 175 177 178 179 183 184 187 189 190 190 190 191 196 192 188 185 184 181
293 291 289 286 283 280 278 278 278 279 280 281 282 282 282 282 281 280 280 281 282 278 269 255 244 239 241 247 251 250 242 231 225 222 219 215 214 213 212 208 203 196 188 181 181 182 184 185 183 177 172 173 175 176 178 181 183 185 188 189 189 188 189 195 191 187 185 185 183
293 291 289 287 285 283 281 279 279 280 280 280 280 279 279 280 280 280 280 282 284 281 271 252 242 237 237 243 246 247 245 236 228 223 221 218 217 216 213 207 199 190 181 178 186 190 190 186 179 173 169 171 174 175 176 178 181 184 186 188 187 187 188 192 189 186 185 185 183
293 292 290 288 287 285 282 279 278 279 279 280 280 280 279 280 280 281 282 284 287 287 282 267 250 238 235 240 242 243 242 238 229 224 221 220 220 219 216 209 204 197 190 191 200 201 198 190 181 170 166 169 173 175 175 175 179 183 185 186 186 186 187 189 188 186 185 185 183
295 293 291 289 288 286 284 280 278 278 278 278 278 278 278 279 281 283 284 286 288 291 290 283 264 246 237 238 239 238 236 233 227 222 220 220 220 220 218 213 209 206 205 207 210 209 204 195 186 170 163 166 172 174 174 175 179 182 184 184 185 186 187 188 187 186 185 184 182
296 294 292 289 288 286 284 281 280 279 277 276 275 275 276 277 280 282 284 285 286 288 288 285 270 254 242 238 237 235 231 226 222 219 218 218 218 218 216 213 209 207 208 212 215 215 214 208 195 173 161 162 169 173 175 176 179 182 183 183 183 185 187 188 186 186 185 184 181
295 293 290 289 287 286 284 283 281 280 278 276 274 275 276 278 280 281 281 281 279 279 281 284 277 265 249 238 234 231 228 223 218 214 211 212 211 211 211 209 207 206 208 212 216 218 220 219 210 186 166 163 168 173 176 177 179 182 183 182 181 184 187 187 185 185 186 184 182
294 292 290 289 288 287 286 285 283 282 280 277 276 277 277 278 278 278 278 277 275 275 278 283 285 274 256 239 232 230 228 225 217 210 203 200 198 198 199 200 200 201 204 209 215 217 219 219 213 194 175 169 173 176 177 177 179 182 184 182 181 183 185 186 185 185 185 184 181
294 292 291 290 290 289 289 288 286 284 282 280 278 278 277 276 275 275 274 274 275 276 278 281 285 277 261 241 231 228 227 228 223 217 209 200 194 191 191 192 194 197 201 205 211 214 215 215 207 195 181 177 179 179 178 176 178 182 185 183 181 182 183 185 184 184 184 183 182
294 293 293 291 292 292 291 290 288 286 284 282 280 279 277 275 273 272 272 273 276 278 279 279 280 275 264 244 231 225 224 225 223 219 213 205 198 193 191 192 195 200 204 206 209 210 209 206 196 185 178 178 181 181 179 176 178 182 186 184 181 181 182 183 182 183 183 183 182
295 294 293 292 292 292 292 291 289 288 286 284 282 280 277 275 273 272 272 275 279 280 280 278 276 272 264 243 227 222 221 221 219 217 213 206 199 194 193 195 199 203 205 206 205 202 198 192 183 177 173 175 179 181 180 177 178 182 185 186 182 181 181 182 181 182 182 182 180
295 294 294 293 292 292 292 291 290 289 288 287 284 281 278 275 274 273 274 277 281 283 283 281 280 277 267 245 224 218 217 216 215 213 210 204 196 192 192 194 197 199 200 199 195 190 185 182 178 175 174 175 180 182 181 179 179 181 184 186 183 182 182 183 182 182 182 181 180
295 295 294 293 293 292 291 291 290 289 289 289 287 285 283 281 278 275 274 279 284 287 289 290 291 289 280 252 224 214 212 212 209 208 206 202 194 190 189 192 192 192 190 188 183 181 180 180 178 176 176 177 181 182 182 181 181 181 182 185 185 183 183 184 183 182 181 181 179
296 295 294 293 292 291 290 290 289 289 290 290 289 290 290 289 286 282 279 281 286 290 293 296 302 302 288 250 219 210 209 211 207 205 202 198 192 188 186 188 188 186 182 178 177 178 179 179 179 178 178 178 180 180 180 181 181 181 182 184 186 185 184 184 184 183 182 181 179
297 296 295 294 292 290 288 288 288 288 289 288 290 291 293 294 293 291 289 287 288 289 292 298 304 302 287 246 211 205 208 213 209 204 199 194 189 185 183 183 183 181 178 174 176 178 180 179 179 179 179 179 178 178 179 181 181 181 182 184 187 186 184 183 185 185 184 180 180
297 296 295 294 292 290 288 287 286 286 286 287 288 290 291 293 295 295 295 294 293 292 295 299 299 295 286 260 216 209 213 219 212 206 198 190 184 181 180 181 181 179 176 174 176 178 179 179 179 181 181 181 179 178 178 180 181 182 183 184 187 186 185 182 186 187 185 181 180
298 297 296 295 293 291 289 288 286 284 284 285 286 287 288 290 292 294 295 295 295 296 295 294 288 284 280 274 241 222 217 221 211 204 198 190 183 180 180 183 183 181 178 175 176 177 178 178 178 181 184 185 182 179 178 180 181 182 183 184 186 185 184 183 187 189 187 182 181
299 299 298 297 295 293 291 289 286 285 283 283 283 283 283 284 286 287 289 290 291 290 288 284 280 278 278 278 260 234 211 208 201 197 194 192 187 183 182 185 186 185 182 179 178 177 177 177 177 179 182 185 182 180 179 181 182 183 183 183 184 184 184 184 188 190 190 184 180
301 301 300 299 297 296 293 290 288 285 283 281 280 280 279 279 279 280 281 282 283 283 281 277 276 276 278 280 274 257 223 192 188 188 190 193 190 185 183 185 186 186 185 182 181 179 178 177 177 178 179 181 180 179 179 180 182 183 184 183 183 184 185 186 189 191 191 186 181
304 303 302 301 299 298 295 293 290 287 283 280 277 276 275 275 274 274 274 276 278 278 277 275 275 276 279 282 283 280 265 202 183 184 190 196 194 189 185 184 185 187 187 185 183 182 181 178 178 178 178 179 179 179 179 180 181 183 184 184 184 185 188 190 191 192 192 189 182
306 305 304 302 301 299 297 295 293 289 285 280 275 272 271 270 269 269 270 272 273 273 273 273 273 275 278 281 286 289 286 261 199 190 194 200 198 194 188 184 185 186 186 185 184 184 183 181 180 179 179 180 181 180 180 179 181 183 185 185 185 187 190 193 192 191 191 189 184
307 306 304 302 301 300 298 297 295 292 287 281 275 270 266 265 265 265 266 267 268 269 270 271 272 272 273 275 277 281 281 274 237 210 202 204 202 197 191 184 184 185 185 183 183 183 184 183 182 181 181 182 182 181 180 180 181 183 185 185 186 188 191 195 192 189 188 187 185
307 306 305 303 302 300 299 298 296 293 289 284 277 270 263 261 260 261 261 261 261 263 264 267 268 268 267 263 254 254 258 260 243 223 209 206 204 199 192 186 185 185 184 181 181 181 182 184 183 182 182 182 184 183 182 181 182 183 185 185 187 189 192 194 191 187 185 186 185
307 306 305 303 302 301 300 298 296 293 290 286 280 272 263 257 256 256 256 256 256 258 259 261 262 262 259 248 234 233 239 246 239 227 214 206 203 198 193 189 187 186 183 177 174 175 178 181 181 181 181 182 184 184 184 183 184 184 185 186 187 190 192 193 189 186 184 186 187
308 307 306 305 304 303 301 299 297 293 290 286 280 272 262 255 254 253 253 253 253 254 254 255 256 254 249 239 226 224 229 236 236 229 218 204 197 195 195 195 190 186 180 171 167 169 173 176 177 178 179 181 183 184 185 185 186 186 186 186 188 190 192 191 188 185 184 187 190
310 309 308 307 306 305 303 301 298 295 291 287 280 271 261 253 251 250 250 251 251 250 250 250 248 245 240 234 226 222 223 228 230 228 220 204 194 193 196 199 193 187 177 164 164 167 170 170 169 172 176 180 183 184 186 186 187 186 185 185 187 189 191 191 187 185 185 189 192
312 311 310 309 308 307 306 304 302 298 294 290 281 271 259 249 247 247 248 249 248 248 246 245 241 237 231 228 224 221 220 222 226 226 221 210 196 191 194 201 195 186 173 159 161 163 164 162 159 161 168 177 182 184 186 186 185 184 183 183 185 188 190 191 188 187 187 191 193
315 314 312 311 311 310 309 308 306 303 299 294 285 272 256 245 243 243 245 246 246 245 243 241 235 229 224 222 221 220 219 219 220 222 221 217 203 195 194 201 196 183 163 149 154 156 157 154 153 154 158 166 176 180 183 185 185 183 181 182 184 187 189 190 189 190 191 192 192
317 316 315 314 314 313 313 312 310 307 304 299 291 278 259 242 239 240 241 242 242 241 240 239 236 229 223 220 220 218 216 214 212 213 216 219 211 204 199 199 196 177 149 137 145 148 149 150 152 154 156 158 168 175 178 179 181 180 180 181 183 185 188 189 190 191 191 192 191
319 318 317 317 317 317 316 315 313 311 309 305 297 285 265 245 239 238 239 240 240 239 238 238 238 233 228 221 219 216 212 207 202 203 208 215 213 209 205 202 195 165 133 132 139 144 147 151 152 152 152 152 165 175 179 177 176 176 178 180 181 184 187 191 191 191 190 189 188
321 321 320 320 320 319 318 317 317 315 313 310 304 292 271 249 242 240 241 241 240 237 235 234 234 232 229 223 220 216 210 201 195 194 200 210 213 211 208 204 185 149 126 136 141 145 149 154 153 149 144 140 161 180 186 184 181 181 182 184 184 186 190 194 195 193 190 188 186
323 323 323 323 322 321 320 320 320 320 320 319 316 305 283 254 247 245 247 250 251 246 240 232 228 226 224 220 217 213 207 197 190 188 193 204 211 211 207 200 166 135 129 143 145 149 153 157 154 146 135 123 152 178 183 170 155 142 133 124 91 68 41 316 256 213 199 191 186
325 325 324 323 323 323 323 324 325 326 327 329 332 329 315 273 262 264 270 277 278 270 258 241 227 220 218 216 214 207 199 188 184 185 190 200 206 206 200 181 130 121 137 147 148 151 156 157 152 140 125 111 120 120 108 94 85 81 80 80 73 67 61 54 33 10 321 223 194
325 325 324 324 325 326 327 329 331 333 337 341 347 349 349 349 345 333 322 315 300 284 268 249 228 218 213 212 210 202 189 177 178 181 186 194 196 195 187 157 114 117 151 154 151 153 155 152 143 132 121 111 108 102 96 92 90 87 86 83 78 73 66 60 50 36 22 4 346
326 326 326 327 329 331 333 335 337 341 345 349 353 355 357 360 359 352 342 329 315 297 275 248 227 216 210 199 189 183 180 176 175 174 176 185 185 179 168 135 110 117 173 169 158 154 150 143 134 126 119 114 109 103 99 96 93 90 87 83 76 69 62 57 51 43 35 25 10
329 330 331 332 334 336 338 340 344 347 351 353 355 356 357 357 356 353 349 343 343 345 348 357 17 39 60 75 80 68 51 55 102 113 113 123 156 153 139 107 83 64 159 185 162 152 143 135 128 122 117 114 111 107 103 101 97 91 86 79 75 70 66 63 56 48 40 32 22
334 335 336 338 340 342 344 347 350 353 355 355 356 357 358 359 358 357 357 358 8 18 28 41 48 53 58 64 65 58 50 45 49 51 52 50 56 70 78 71 52 40 38 153 153 143 135 128 122 117 114 115 114 112 109 105 100 93 87 82 77 73 69 67 61 53 45 37 29
339 340 342 344 346 347 349 352 355 357 358 357 357 358 0 3 3 3 4 10 21 29 37 45 52 58 63 68 68 61 54 48 46 45 44 44 42 43 47 52 45 45 56 87 119 127 125 120 116 113 111 113 114 114 111 107 101 96 92 88 83 76 70 66 62 56 49 40 34
343 345 347 350 352 353 355 357 359 0 0 0 1 1 3 5 7 9 12 19 29 37 43 47 50 54 58 62 65 62 58 52 48 47 47 48 46 46 47 51 51 54 62 78 97 110 115 115 113 111 111 112 113 113 112 109 104 99 95 91 87 80 74 67 62 57 51 44 38
348 350 352 355 357 359 360 0 2 3 4 5 5 5 5 8 13 16 20 27 35 42 48 51 52 54 56 59 63 64 63 59 53 50 49 50 49 47 47 50 53 55 59 66 79 93 102 106 107 107 107 110 112 112 111 110 105 101 97 93 89 85 80 73 66 59 53 48 43